Date String (YYYY-MM-DD hh:mm:ss) UTC,Instrument flags,Ambient pressure (hPa),Sample flow (lpm),Bypass flow (lpm),Sample temperature (°C),Ambient temperature (°C),ASC tube jacket temperature (°C),LED temperature (°C),Box temperature (°C),Sample RH (%),Span deviation,Mass concentration (μg/m³),Mass concentration (μg/m³),Mass concentration (μg/m³)
DateTimeUTC,F1_M11,P_M11,Q1_M11,Q2_M11,T1_M11,T2_M11,T3_M11,T4_M11,T5_M11,U1_M11,ZSPAN_M11,X0_M11,X2_M11,X1_M11
2022-03-08 23:00:00,,0819.9,4.99,0.00,21.5,20.8,00.0,30.7,23.2,06.3,0000.0,0009.28,0004.96,0004.56
2022-03-08 23:01:00,,0819.9,5.01,0.00,21.5,20.8,00.0,30.7,23.1,06.5,0000.0,0008.63,0004.91,0004.53
2022-03-08 23:02:00,,0819.9,5.02,0.00,21.4,20.7,00.0,30.6,23.1,06.6,0000.0,0008.51,0004.90,0004.51
2022-03-08 23:03:00,,0819.9,4.99,0.00,21.4,20.7,00.0,30.6,23.1,06.6,0000.0,0008.16,0004.88,0004.49
2022-03-08 23:04:00,,0819.9,4.99,0.00,21.4,20.7,00.0,30.6,23.0,06.5,0001.2,0008.10,0004.87,0004.48
2022-03-08 23:05:00,,0819.9,5.01,0.00,21.4,20.7,00.0,30.6,23.0,06.4,0000.7,0008.08,0004.83,0004.45
2022-03-08 23:06:00,,0819.9,5.00,0.00,21.4,20.8,00.0,30.6,23.0,06.4,0000.8,0008.08,0004.79,0004.40
2022-03-08 23:07:00,,0819.9,5.00,0.00,21.4,20.8,00.0,30.6,23.1,06.3,0001.6,0008.05,0004.77,0004.37
2022-03-08 23:08:00,,0819.9,4.98,0.00,21.4,20.7,00.0,30.6,23.1,06.2,0001.1,0008.00,0004.74,0004.35
2022-03-08 23:09:00,,0819.9,5.00,0.00,21.4,20.7,00.0,30.5,23.1,06.3,-000.5,0007.92,0004.69,0004.33
2022-03-08 23:10:00,,0819.9,5.00,0.00,21.4,20.7,00.0,30.5,23.1,06.6,-000.5,0007.86,0004.67,0004.32
2022-03-08 23:11:00,,0820.0,4.99,0.00,21.4,20.8,00.0,30.5,23.1,06.6,-000.4,0007.53,0004.67,0004.32
2022-03-08 23:12:00,,0820.0,5.00,0.00,21.4,20.8,00.0,30.5,23.1,06.7,-000.1,0007.56,0004.70,0004.33
2022-03-08 23:13:00,,0820.0,5.00,0.00,21.4,20.7,00.0,30.5,23.1,06.6,0000.3,0007.66,0004.74,0004.35
2022-03-08 23:14:00,,0820.0,5.01,0.00,21.4,20.7,00.0,30.5,23.1,06.6,-000.1,0007.73,0004.75,0004.37
2022-03-08 23:15:00,,0820.0,5.00,0.00,21.4,20.7,00.0,30.5,23.1,06.6,0000.2,0007.88,0004.79,0004.40
2022-03-08 23:16:00,,0820.1,5.00,0.00,21.5,21.3,00.0,30.5,23.3,06.6,0001.3,0008.00,0004.85,0004.45
2022-03-08 23:17:00,,0820.1,4.99,0.00,21.6,22.2,00.0,30.6,23.6,06.7,0003.4,0008.00,0004.88,0004.50
2022-03-08 23:18:00,,0820.1,5.00,0.00,21.8,22.6,00.0,30.6,23.8,06.6,0004.9,0009.05,0004.92,0004.53
2022-03-08 23:19:00,,0820.1,5.00,0.00,21.9,22.4,00.0,30.7,23.8,06.7,0002.2,0009.15,0004.96,0004.57
2022-03-08 23:20:00,,0820.1,4.99,0.00,21.9,22.2,00.0,30.7,23.8,06.4,0004.4,0009.29,0004.99,0004.58
2022-03-08 23:21:00,,0820.1,5.00,0.00,21.9,22.0,00.0,30.7,23.7,06.5,0001.0,0009.30,0005.02,0004.60
2022-03-08 23:22:00,,0820.1,4.99,0.00,21.8,21.8,00.0,30.7,23.7,06.7,0001.0,0009.39,0005.07,0004.62
2022-03-08 23:23:00,,0820.1,5.00,0.00,21.8,21.6,00.0,30.7,23.6,06.9,0000.0,0009.42,0005.08,0004.62
2022-03-08 23:24:00,,0820.1,5.01,0.00,21.8,21.5,00.0,30.7,23.6,06.7,0000.0,0010.39,0005.11,0004.64
2022-03-08 23:25:00,,0820.1,5.00,0.00,21.8,21.4,00.0,30.8,23.5,06.6,0000.0,0010.95,0005.17,0004.66
2022-03-08 23:26:00,,0820.1,5.00,0.00,21.8,21.4,00.0,30.8,23.4,06.6,0000.0,0011.47,0005.19,0004.66
2022-03-08 23:27:00,,0820.1,4.99,0.00,21.7,21.3,00.0,30.8,23.4,06.6,0000.0,0011.86,0005.19,0004.67
2022-03-08 23:28:00,,0820.2,5.00,0.00,21.7,21.2,00.0,30.8,23.4,06.5,0000.0,0011.97,0005.21,0004.67
2022-03-08 23:29:00,,0820.2,5.00,0.00,21.7,21.2,00.0,30.8,23.3,06.5,0000.0,0011.13,0005.24,0004.68
2022-03-08 23:30:00,,0820.1,4.99,0.00,21.6,21.1,00.0,30.7,23.3,06.2,0000.0,0011.18,0005.26,0004.68
2022-03-08 23:31:00,,0820.2,5.01,0.00,21.6,21.1,00.0,30.7,23.3,06.4,0000.8,0011.19,0005.28,0004.70
2022-03-08 23:32:00,,0820.2,5.00,0.00,21.6,21.1,00.0,30.7,23.3,06.5,0002.2,0011.62,0005.29,0004.71
2022-03-08 23:33:00,,0820.2,4.99,0.00,21.6,21.0,00.0,30.7,23.2,06.5,0002.6,0011.65,0005.30,0004.71
2022-03-08 23:34:00,,0820.2,5.01,0.00,21.6,21.0,00.0,30.7,23.2,06.7,0002.2,0011.67,0005.30,0004.73
2022-03-08 23:35:00,,0820.2,5.01,0.00,21.5,21.0,00.0,30.7,23.2,06.6,0002.4,0010.65,0005.30,0004.73
2022-03-08 23:36:00,,0820.2,5.00,0.00,21.5,21.0,00.0,30.7,23.2,06.6,0002.3,0010.43,0005.25,0004.71
2022-03-08 23:37:00,,0820.2,5.00,0.00,21.5,21.0,00.0,30.7,23.2,06.7,0002.9,0010.65,0005.25,0004.71
2022-03-08 23:38:00,,0820.2,4.99,0.00,21.5,20.9,00.0,30.7,23.2,06.8,0002.9,0010.35,0005.29,0004.72
2022-03-08 23:39:00,,0820.2,5.00,0.00,21.5,20.9,00.0,30.7,23.2,06.9,0003.1,0010.44,0005.32,0004.73
2022-03-08 23:40:00,,0820.2,4.99,0.00,21.5,20.8,00.0,30.6,23.1,06.7,0003.8,0010.31,0005.30,0004.73
2022-03-08 23:41:00,,0820.2,5.02,0.00,21.5,20.8,00.0,30.6,23.1,06.9,0003.8,0010.28,0005.33,0004.75
2022-03-08 23:42:00,,0820.1,5.00,0.00,21.4,20.8,00.0,30.6,23.1,06.7,0003.1,0010.23,0005.33,0004.78
2022-03-08 23:43:00,,0820.1,5.00,0.00,21.4,20.8,00.0,30.6,23.1,06.8,0003.2,0009.87,0005.33,0004.80
2022-03-08 23:44:00,,0820.2,4.99,0.00,21.4,20.7,00.0,30.6,23.0,06.7,0004.1,0010.41,0005.34,0004.82
2022-03-08 23:45:00,,0820.2,5.00,0.00,21.4,20.7,00.0,30.6,23.0,06.7,0004.6,0010.49,0005.35,0004.84
2022-03-08 23:46:00,,0820.2,5.00,0.00,21.3,20.7,00.0,30.6,22.9,06.7,0004.2,0011.35,0005.36,0004.86
2022-03-08 23:47:00,,0820.3,5.00,0.00,21.3,20.7,00.0,30.5,23.0,06.8,0002.7,0012.00,0005.42,0004.89
2022-03-08 23:48:00,,0820.2,4.99,0.00,21.3,20.7,00.0,30.5,23.0,06.7,0002.4,0011.73,0005.41,0004.90
2022-03-08 23:49:00,,0820.3,5.00,0.00,21.3,20.6,00.0,30.5,23.0,06.8,0002.4,0011.65,0005.40,0004.90
2022-03-08 23:50:00,,0820.2,5.00,0.00,21.3,20.5,00.0,30.5,23.0,06.9,0002.3,0011.92,0005.42,0004.92
2022-03-08 23:51:00,,0820.3,5.01,0.00,21.3,20.6,00.0,30.5,23.1,07.0,0001.0,0012.42,0005.45,0004.95
2022-03-08 23:52:00,,0820.3,5.00,0.00,21.3,20.7,00.0,30.5,23.1,06.9,0000.2,0012.41,0005.45,0004.96
2022-03-08 23:53:00,,0820.3,4.99,0.00,21.3,20.7,00.0,30.5,23.0,06.9,0003.8,0012.86,0005.47,0004.96
2022-03-08 23:54:00,,0820.3,5.00,0.00,21.3,20.7,00.0,30.5,23.0,06.9,0002.7,0013.22,0005.51,0004.97
2022-03-08 23:55:00,,0820.3,5.02,0.00,21.3,20.7,00.0,30.5,23.0,06.9,0003.3,0012.57,0005.51,0004.98
2022-03-08 23:56:00,,0820.3,4.99,0.00,21.3,20.7,00.0,30.5,23.0,06.9,0000.7,0012.73,0005.51,0004.97
2022-03-08 23:57:00,,0820.3,4.99,0.00,21.3,20.8,00.0,30.4,23.0,06.8,-000.1,0012.25,0005.49,0004.96
2022-03-08 23:58:00,,0820.3,5.01,0.00,21.3,20.8,00.0,30.4,23.0,06.7,0006.0,0011.23,0005.45,0004.95
2022-03-08 23:59:00,,0820.3,5.00,0.00,21.3,20.8,00.0,30.4,23.0,06.8,0006.6,0010.59,0005.48,0004.94
